2024-110B (60013 NORAD) Tracking and Keplerian Element Data

This shows tracking and keplerian element data for the satellite.

Feedback or suggestion? Click here.




ElementValue
Catalog60013
Name2024-110B
Epoch Orbit30
Epoch Day160.24515414
Epoch Year2024
RAAN246.9482
Inclination97.6021
Eccentricity0.0011767
Argument of Perigee288.3274
Mean Anonmoly71.6673
Mean Motion15.06268205
Decay Rate9.566E-05
L11 60013U 24110B 24160.24515414 .00009566 00000+0 65443-3 0 9997
L22 60013 97.6021 246.9482 0011767 288.3274 71.6673 15.06268205 306



Live tracking and technical data element details for 2024-110B (NORAD 60013). 2024-110B can be tracked NOW for your location showing map with azimuth and elevation plus other details from your city location.







IsCatalogInMostPopularTable: catalog: 60013, numindb: 8
Update: records affected: 1



GetName: 60013 2024-110B

Hit Count: updated at: Tue, 16 Jul 2024 02:26:09 GMT